Location: *
(51.1248°S, 108.4023°W)
Time: 10:18:11
(UTC+00:00)

N. Korean satellite - Pass Details

Date: 05 October 2021
Orbit: 450 x 495 km, 97.3° (Epoch: 19 October)

Event Time Altitude Azimuth Distance (km) Brightness Sun altitude
Rises 10:15:01 0° 59° (ENE) 2,586 10.5 -20.5°
Reaches altitude 10° 10:17:43 10° 81° (E) 1,705 9.9 -20.1°
Maximum altitude 10:19:58 16° 119° (ESE) 1,381 9.9 -19.9°
Drops below altitude 10° 10:22:13 10° 157° (SSE) 1,704 10.2 -19.6°
Sets 10:24:55 0° 179° (S) 2,585 10.8 -19.2°
